sat.trackr.live / text

‹ back to catalog

STARLINK-33697

NORAD 63467 · 2025-070H

PAYLOAD ACTIVE UNKNOWN

§ Identity

Operator
Country
US
Launch date
2025-04-06
Launch site
AFETR
Launch vehicle
Mass (kg)
RCS (m²)

Purposes: comms

External: N2YO · Heavens-Above · Gunter

§ Orbital elements

Epoch: 2026-09-20T15:46:06.229056Z

Period
94.27 min
Inclination
43.0035°
Eccentricity
0.0001826
Mean motion
15.27592393 rev/d
Perigee alt
481.8 km
Apogee alt
484.3 km
Semi-major
6,861.1 km
B*
2.9972e-4
RAAN
238.7898°
Arg perigee
271.4754°
Mean anomaly
88.5889°
Rev number
8,279

§ Raw data

STARLINK-336971 63467U 25070H   26263.65701654  .00007998  00000+0  29972-3 0  99972 63467  43.0035 238.7898 0001826 271.4754  88.5889 15.27592393 82793

JSON: /api/v1/satellites/63467 · /tle

For live sub-satellite position, see the globe view (requires WebGL).

§ Visibility from observer

Set your observer location to see the next 7 days of passes ≥ 10°. The values pass through the URL so the page stays shareable.

No JS? Fill the form by hand. The geolocation button needs JavaScript.